Location: Central Coast
(33.3208°S, 151.2336°E)
Time: 18:50:57
(UTC+11:00)

Vanguard 1 Rocket - All Passes

Search period start: 24 October 2017 00:00
Search period end: 03 November 2017 00:00
Orbit: 655 x 4222 km, 34.3° (Epoch: 23 October)

Date Brightness Start Highest point End Pass type
(mag) Time Alt. Az. Time Alt. Az. Time Alt. Az.
24 Oct - 00:21:44 10° WSW 00:47:03 68° NNW 01:08:39 10° NE visible
24 Oct - 02:56:48 10° W 03:16:38 30° NW 03:31:31 10° N visible
24 Oct - 15:51:01 10° N 15:59:10 27° NE 16:12:16 10° E daylight
24 Oct - 18:12:39 10° NW 18:25:21 72° NNE 18:48:58 10° ESE daylight
24 Oct - 20:38:46 10° W 20:57:09 87° S 21:24:10 10° E visible
24 Oct - 23:07:45 10° WSW 23:31:42 80° NNW 23:56:06 10° ENE visible
25 Oct - 01:39:57 10° WSW 02:03:34 45° NW 02:22:06 10° NNE visible
25 Oct - 04:25:58 10° WNW 04:30:45 11° WNW 04:35:09 10° NW visible
25 Oct - 14:45:44 10° NE 14:48:44 11° ENE 14:52:13 10° ENE daylight
25 Oct - 17:02:27 10° NW 17:12:50 54° NE 17:32:29 10° ESE daylight
25 Oct - 19:26:56 10° WNW 19:42:08 89° NNE 20:08:14 10° E visible
25 Oct - 21:54:35 10° W 22:15:54 88° NNW 22:42:17 10° ENE visible
26 Oct - 00:24:51 10° WSW 00:49:25 60° NW 01:11:08 10° NE visible
26 Oct - 03:01:10 10° W 03:18:34 24° NW 03:32:30 10° N visible
26 Oct - 15:53:13 10° NNW 16:01:29 34° NE 16:15:50 10° ESE daylight
26 Oct - 18:15:49 10° WNW 18:28:14 79° NNE 18:51:50 10° ESE daylight
26 Oct - 20:42:07 10° W 21:00:15 88° S 21:27:14 10° E visible
26 Oct - 23:10:54 10° WSW 23:34:22 74° NNW 23:58:50 10° NE visible
27 Oct - 01:43:26 10° WSW 02:05:36 38° NW 02:23:53 10° NNE visible
27 Oct - 14:45:45 10° NNE 14:51:00 17° NE 14:58:14 10° E daylight
27 Oct - 17:05:24 10° NW 17:15:31 63° NNE 17:35:24 10° ESE daylight
27 Oct - 19:30:18 10° W 19:45:16 88° S 20:11:14 10° E visible
27 Oct - 21:57:50 10° WSW 22:18:48 84° NNW 22:45:12 10° ENE visible
28 Oct - 00:28:03 10° WSW 00:51:41 53° NW 01:13:21 10° NNE visible
28 Oct - 03:06:39 10° W 03:20:33 18° NW 03:32:28 10° NNW visible
28 Oct - 15:55:46 10° NNW 16:03:58 42° NE 16:19:06 10° ESE daylight
28 Oct - 18:19:06 10° WNW 18:31:17 85° NNE 18:54:45 10° E daylight
28 Oct - 20:45:28 10° W 21:03:21 89° S 21:30:15 10° ENE visible
28 Oct - 23:14:05 10° WSW 23:36:54 66° NNW 00:01:20 10° NE visible
29 Oct - 01:47:19 10° W 02:07:37 31° NW 02:25:12 10° N visible
29 Oct - 14:47:20 10° N 14:53:22 23° NE 15:02:35 10° E daylight
29 Oct - 17:08:31 10° WNW 17:18:24 72° NNE 17:38:18 10° ESE daylight
29 Oct - 19:33:42 10° W 19:48:27 87° S 20:14:16 10° E visible
29 Oct - 22:01:05 10° WSW 22:21:37 78° NNW 22:47:56 10° ENE visible
30 Oct - 00:31:26 10° WSW 00:53:52 45° NW 01:15:14 10° NNE visible
30 Oct - 03:14:45 10° WNW 03:22:39 12° NW 03:29:58 10° NW visible
30 Oct - 15:58:35 10° NW 16:06:38 51° NE 16:22:11 10° ESE daylight
30 Oct - 18:22:28 10° WNW 18:34:26 90° NE 18:57:42 10° E daylight
30 Oct - 20:48:48 10° W 21:06:22 87° NNW 21:33:11 10° ENE visible
30 Oct - 23:17:19 10° WSW 23:39:20 59° NNW 00:03:35 10° NE visible
31 Oct - 01:51:50 10° W 02:09:41 24° NW 02:25:52 10° N visible
31 Oct - 14:49:34 10° NNW 14:55:51 30° NE 15:06:19 10° E daylight
31 Oct - 17:11:46 10° WNW 17:21:27 80° NNE 17:41:12 10° ESE daylight
31 Oct - 19:37:07 10° W 19:51:38 88° S 20:17:16 10° E visible
31 Oct - 22:04:20 10° WSW 22:24:20 72° NNW 22:50:28 10° NE visible
01 Nov - 00:35:06 10° W 00:56:03 37° NW 01:16:43 10° NNE visible
01 Nov - 13:42:45 10° NNE 13:45:41 13° NE 13:49:15 10° ENE daylight
01 Nov - 16:01:37 10° NW 16:09:29 61° NNE 16:25:12 10° ESE daylight
01 Nov - 18:25:53 10° W 18:37:40 87° S 19:00:41 10° E daylight
01 Nov - 20:52:08 10° WSW 21:09:21 82° NNW 21:35:57 10° ENE visible
01 Nov - 23:20:41 10° WSW 23:41:44 51° NW 00:05:31 10° NNE visible
02 Nov - 01:57:28 10° W 02:11:51 18° NW 02:25:26 10° NNW visible
02 Nov - 14:52:10 10° NNW 14:58:30 38° NE 15:09:43 10° ESE daylight
02 Nov - 17:15:07 10° WNW 17:24:38 86° NNE 17:44:08 10° E daylight
02 Nov - 19:40:31 10° W 19:54:47 90° S 20:20:12 10° ENE visible
02 Nov - 22:07:38 10° WSW 22:27:00 64° NNW 22:52:45 10° NE visible
